| time (UTC) | temp F | wind direction | speed knots | gust knots | rain 1hr in | rain 24hr in | rain mn in | humidity % | barometer mb |
| 20260906213015 | 71 | 276 | 0.0 | 0.9 | 0.00 | 0.00 | 0.00 | 53 | 1019.2 |
| 20260906212515 | 70 | 78 | 0.0 | 0.9 | 0.00 | 0.00 | 0.00 | 53 | 1019.2 |
| 20260906212014 | 70 | 80 | 0.0 | 1.7 | 0.00 | 0.00 | 0.00 | 53 | 1019.1 |
| 20260906211513 | 70 | 71 | 0.0 | 1.7 | 0.00 | 0.00 | 0.00 | 53 | 1019.1 |
| 20260906211013 | 70 | 58 | 0.0 | 0.9 | 0.00 | 0.00 | 0.00 | 53 | 1019.1 |
| 20260906210515 | 70 | 59 | 0.0 | 5.2 | 0.00 | 0.00 | 0.00 | 52 | 1019.0 |
| 20260906210012 | 71 | 59 | 0.0 | 5.2 | 0.00 | 0.00 | 0.00 | 52 | 1019.0 |
| 20260906205513 | 71 | 263 | 0.0 | 4.3 | 0.00 | 0.00 | 0.00 | 52 | 1018.9 |
| 20260906205012 | 71 | 349 | 0.0 | 1.7 | 0.00 | 0.00 | 0.00 | 52 | 1018.9 |
| 20260906204511 | 71 | 336 | 0.0 | 0.9 | 0.00 | 0.00 | 0.00 | 53 | 1018.9 |
| 20260906204011 | 70 | 336 | 0.0 | 2.6 | 0.00 | 0.00 | 0.00 | 51 | 1018.8 |
| 20260906203514 | 71 | 332 | 0.0 | 2.6 | 0.00 | 0.00 | 0.00 | 52 | 1018.7 |
| 20260906203012 | 70 | 349 | 0.0 | 1.7 | 0.00 | 0.00 | 0.00 | 52 | 1018.7 |
| 20260906202514 | 71 | 340 | 0.0 | 1.7 | 0.00 | 0.00 | 0.00 | 52 | 1018.6 |
| 20260906202011 | 72 | 60 | 0.0 | 2.6 | 0.00 | 0.00 | 0.00 | 50 | 1018.7 |
| 20260906201513 | 72 | 15 | 0.0 | 2.6 | 0.00 | 0.00 | 0.00 | 49 | 1018.7 |
| 20260906201012 | 72 | 72 | 0.0 | 1.7 | 0.00 | 0.00 | 0.00 | 51 | 1018.6 |
| 20260906200510 | 71 | 53 | 0.0 | 1.7 | 0.00 | 0.00 | 0.00 | 50 | 1018.7 |
| 20260906200010 | 71 | 98 | 0.9 | 2.6 | 0.00 | 0.00 | 0.00 | 49 | 1018.8 |
| 20260906195513 | 72 | 1 | 0.0 | 2.6 | 0.00 | 0.00 | 0.00 | 50 | 1018.7 |
| 20260906195009 | 72 | 56 | 0.0 | 2.6 | 0.00 | 0.00 | 0.00 | 52 | 1018.7 |
| 20260906194509 | 71 | 32 | 0.0 | 0.9 | 0.00 | 0.00 | 0.00 | 51 | 1018.7 |
| 20260906194008 | 71 | 62 | 0.0 | 1.7 | 0.00 | 0.00 | 0.00 | 53 | 1018.8 |
| 20260906193509 | 71 | 41 | 0.0 | 4.3 | 0.00 | 0.00 | 0.00 | 52 | 1018.7 |
| 20260906193008 | 72 | 41 | 0.0 | 4.3 | 0.00 | 0.00 | 0.00 | 54 | 1018.7 |
| 20260906192508 | 72 | 11 | 0.9 | 2.6 | 0.00 | 0.00 | 0.00 | 52 | 1018.6 |
| 20260906192008 | 72 | 69 | 0.0 | 2.6 | 0.00 | 0.00 | 0.00 | 50 | 1018.6 |
| 20260906191508 | 72 | 69 | 0.0 | 5.2 | 0.00 | 0.00 | 0.00 | 51 | 1018.5 |
| 20260906191007 | 71 | 64 | 0.0 | 5.2 | 0.00 | 0.00 | 0.00 | 52 | 1018.6 |
| 20260906190507 | 73 | 68 | 0.9 | 4.3 | 0.00 | 0.00 | 0.00 | 48 | 1018.5 |
| 20260906190007 | 73 | 52 | 0.9 | 2.6 | 0.00 | 0.00 | 0.00 | 51 | 1018.5 |
| 20260906185507 | 74 | 328 | 0.0 | 0.9 | 0.00 | 0.00 | 0.00 | 51 | 1018.6 |
| 20260906185006 | 73 | 237 | 0.0 | 0.9 | 0.00 | 0.00 | 0.00 | 51 | 1018.6 |
| 20260906184505 | 73 | 23 | 0.0 | 1.7 | 0.00 | 0.00 | 0.00 | 52 | 1018.6 |
| 20260906184007 | 72 | 37 | 0.0 | 1.7 | 0.00 | 0.00 | 0.00 | 49 | 1018.6 |
| 20260906183506 | 71 | 40 | 0.0 | 2.6 | 0.00 | 0.00 | 0.00 | 56 | 1018.7 |
| 20260906183012 | 71 | 40 | 0.0 | 2.6 | 0.00 | 0.00 | 0.00 | 50 | 1018.7 |
| 20260906182504 | 71 | 250 | 0.0 | 2.6 | 0.00 | 0.00 | 0.00 | 52 | 1018.6 |
| 20260906182004 | 72 | 89 | 0.0 | 2.6 | 0.00 | 0.00 | 0.00 | 50 | 1018.7 |
| 20260906181508 | 72 | 3 | 0.0 | 2.6 | 0.00 | 0.00 | 0.00 | 50 | 1018.7 |
| 20260906181003 | 71 | 55 | 0.0 | 2.6 | 0.00 | 0.00 | 0.00 | 55 | 1018.8 |
| 20260906180504 | 71 | 330 | 0.0 | 5.2 | 0.00 | 0.00 | 0.00 | 54 | 1018.7 |
| 20260906180003 | 71 | 26 | 0.0 | 5.2 | 0.00 | 0.00 | 0.00 | 51 | 1018.8 |
| 20260906175503 | 72 | 58 | 0.9 | 3.5 | 0.00 | 0.00 | 0.00 | 55 | 1018.7 |
| 20260906175002 | 72 | 41 | 0.0 | 3.5 | 0.00 | 0.00 | 0.00 | 56 | 1018.8 |
| 20260906174502 | 71 | 294 | 0.0 | 1.7 | 0.00 | 0.00 | 0.00 | 58 | 1018.7 |
| 20260906174003 | 71 | 70 | 0.0 | 4.3 | 0.00 | 0.00 | 0.00 | 58 | 1018.8 |
| 20260906173502 | 70 | 78 | 0.0 | 6.1 | 0.00 | 0.00 | 0.00 | 58 | 1018.8 |
| 20260906173004 | 71 | 127 | 0.0 | 4.3 | 0.00 | 0.00 | 0.00 | 57 | 1018.8 |
| 20260906172501 | 71 | 44 | 0.9 | 5.2 | 0.00 | 0.00 | 0.00 | 59 | 1018.8 |
| 20260906172001 | 70 | 358 | 0.0 | 5.2 | 0.00 | 0.00 | 0.00 | 57 | 1018.8 |
| 20260906171505 | 71 | 13 | 0.0 | 3.5 | 0.00 | 0.00 | 0.00 | 57 | 1018.8 |
| 20260906171001 | 72 | 48 | 0.0 | 7.0 | 0.00 | 0.00 | 0.00 | 58 | 1018.7 |
| 20260906170501 | 71 | 339 | 0.9 | 7.0 | 0.00 | 0.00 | 0.00 | 56 | 1018.8 |
| 20260906165600 | 71 | 96 | 0.9 | 3.5 | 0.00 | 0.00 | 0.00 | 56 | 1018.9 |
| 20260906165059 | 71 | 72 | 0.0 | 0.0 | 0.00 | 0.00 | 0.00 | 59 | 1018.8 |
| 20260906164602 | 70 | 72 | 0.0 | 1.7 | 0.00 | 0.00 | 0.00 | 59 | 1018.7 |
| 20260906164100 | 70 | 43 | 0.0 | 5.2 | 0.00 | 0.00 | 0.00 | 58 | 1018.8 |
| 20260906163558 | 71 | 42 | 0.0 | 5.2 | 0.00 | 0.00 | 0.00 | 56 | 1018.7 |
| 20260906163106 | 72 | 255 | 0.0 | 4.3 | 0.00 | 0.00 | 0.00 | 59 | 1018.7 |
| 20260906162557 | 72 | 68 | 0.0 | 4.3 | 0.00 | 0.00 | 0.00 | 60 | 1018.6 |
| 20260906162056 | 71 | 53 | 0.0 | 1.7 | 0.00 | 0.00 | 0.00 | 58 | 1018.7 |
| 20260906161601 | 71 | 48 | 0.0 | 5.2 | 0.00 | 0.00 | 0.00 | 60 | 1018.7 |
| 20260906161056 | 71 | 87 | 1.7 | 4.3 | 0.00 | 0.00 | 0.00 | 57 | 1018.7 |
| 20260906160558 | 71 | 99 | 0.0 | 4.3 | 0.00 | 0.00 | 0.00 | 60 | 1018.6 |
| 20260906160054 | 70 | 4 | 0.0 | 7.0 | 0.00 | 0.00 | 0.00 | 63 | 1018.7 |
| 20260906155556 | 70 | 77 | 0.0 | 3.5 | 0.00 | 0.00 | 0.00 | 65 | 1018.6 |
| 20260906155054 | 69 | 22 | 0.0 | 5.2 | 0.00 | 0.00 | 0.00 | 67 | 1018.6 |
| 20260906154551 | 68 | 91 | 0.9 | 5.2 | 0.00 | 0.00 | 0.00 | 64 | 1018.7 |
| 20260906154051 | 69 | 3 | 1.7 | 5.2 | 0.00 | 0.00 | 0.00 | 63 | 1018.6 |
| 20260906153550 | 69 | 75 | 0.0 | 5.2 | 0.00 | 0.00 | 0.00 | 66 | 1018.6 |
| 20260906153050 | 68 | 281 | 0.0 | 6.1 | 0.00 | 0.00 | 0.00 | 66 | 1018.7 |
| 20260906152550 | 69 | 79 | 0.9 | 6.1 | 0.00 | 0.00 | 0.00 | 65 | 1018.6 |
| 20260906152049 | 69 | 32 | 0.0 | 3.5 | 0.00 | 0.00 | 0.00 | 65 | 1018.5 |
| 20260906151549 | 69 | 50 | 0.0 | 6.1 | 0.00 | 0.00 | 0.00 | 66 | 1018.5 |
| 20260906151048 | 69 | 44 | 0.9 | 6.1 | 0.00 | 0.00 | 0.00 | 65 | 1018.6 |
| 20260906150549 | 69 | 43 | 0.0 | 3.5 | 0.00 | 0.00 | 0.00 | 69 | 1018.6 |
| 20260906150053 | 68 | 67 | 0.9 | 3.5 | 0.00 | 0.00 | 0.00 | 69 | 1018.5 |
| 20260906145545 | 67 | 73 | 0.0 | 5.2 | 0.00 | 0.00 | 0.00 | 71 | 1018.5 |
| 20260906145045 | 66 | 149 | 0.0 | 5.2 | 0.00 | 0.00 | 0.00 | 71 | 1018.5 |
| 20260906144551 | 67 | 83 | 0.9 | 3.5 | 0.00 | 0.00 | 0.00 | 71 | 1018.5 |
| 20260906144043 | 66 | 293 | 0.0 | 2.6 | 0.00 | 0.00 | 0.00 | 73 | 1018.5 |
| 20260906143546 | 66 | 75 | 0.0 | 2.6 | 0.00 | 0.00 | 0.00 | 73 | 1018.5 |
| 20260906143043 | 66 | 84 | 0.0 | 2.6 | 0.00 | 0.00 | 0.00 | 73 | 1018.6 |
| 20260906142541 | 66 | 68 | 0.0 | 4.3 | 0.00 | 0.00 | 0.00 | 73 | 1018.6 |
| 20260906142044 | 66 | 95 | 0.9 | 4.3 | 0.00 | 0.00 | 0.00 | 74 | 1018.6 |
| 20260906141542 | 65 | 2 | 0.0 | 3.5 | 0.00 | 0.00 | 0.00 | 75 | 1018.5 |
| 20260906141038 | 65 | 18 | 0.0 | 4.3 | 0.00 | 0.00 | 0.00 | 76 | 1018.5 |
| 20260906140542 | 64 | 83 | 0.0 | 4.3 | 0.00 | 0.00 | 0.00 | 76 | 1018.4 |
| 20260906140041 | 64 | 77 | 0.0 | 5.2 | 0.00 | 0.00 | 0.00 | 77 | 1018.4 |
| 20260906135536 | 64 | 95 | 0.9 | 5.2 | 0.00 | 0.00 | 0.00 | 79 | 1018.3 |
| 20260906135034 | 63 | 81 | 0.9 | 5.2 | 0.00 | 0.00 | 0.00 | 79 | 1018.3 |
| 20260906134536 | 63 | 126 | 0.0 | 4.3 | 0.00 | 0.00 | 0.00 | 79 | 1018.2 |
| 20260906134032 | 63 | 18 | 1.7 | 4.3 | 0.00 | 0.00 | 0.00 | 79 | 1018.2 |
| 20260906133530 | 62 | 87 | 0.9 | 4.3 | 0.00 | 0.00 | 0.00 | 80 | 1018.1 |
| 20260906133030 | 62 | 68 | 0.0 | 5.2 | 0.00 | 0.00 | 0.00 | 80 | 1018.2 |
| 20260906132531 | 62 | 86 | 0.0 | 3.5 | 0.00 | 0.00 | 0.00 | 80 | 1018.1 |
| 20260906132030 | 62 | 82 | 0.0 | 4.3 | 0.00 | 0.00 | 0.00 | 80 | 1018.2 |
| 20260906131530 | 62 | 62 | 0.0 | 4.3 | 0.00 | 0.00 | 0.00 | 81 | 1018.2 |
| 20260906131030 | 62 | 42 | 1.7 | 5.2 | 0.00 | 0.00 | 0.00 | 81 | 1018.1 |
| 20260906130529 | 62 | 101 | 1.7 | 5.2 | 0.00 | 0.00 | 0.00 | 81 | 1018.0 |
| 20260906130030 | 62 | 340 | 0.9 | 4.3 | 0.00 | 0.00 | 0.00 | 81 | 1018.1 |
| 20260906125528 | 62 | 76 | 0.0 | 4.3 | 0.00 | 0.00 | 0.00 | 82 | 1018.0 |
| 20260906125028 | 62 | 79 | 0.9 | 6.1 | 0.00 | 0.00 | 0.00 | 81 | 1017.9 |
| 20260906124526 | 62 | 58 | 0.0 | 6.1 | 0.00 | 0.00 | 0.00 | 82 | 1017.9 |
| 20260906124026 | 62 | 72 | 0.9 | 5.2 | 0.00 | 0.00 | 0.00 | 82 | 1017.9 |
| 20260906123526 | 62 | 296 | 0.0 | 0.9 | 0.00 | 0.00 | 0.00 | 82 | 1017.9 |
| 20260906123033 | 62 | 315 | 0.0 | 1.7 | 0.00 | 0.00 | 0.00 | 82 | 1017.9 |
| 20260906122527 | 62 | 316 | 0.0 | 1.7 | 0.00 | 0.00 | 0.00 | 81 | 1017.8 |
| 20260906122025 | 62 | 326 | 0.0 | 0.9 | 0.00 | 0.00 | 0.00 | 82 | 1017.9 |
| 20260906121537 | 62 | 326 | 0.0 | 0.0 | 0.00 | 0.00 | 0.00 | 82 | 1017.8 |
| 20260906121023 | 62 | 326 | 0.0 | 0.0 | 0.00 | 0.00 | 0.00 | 82 | 1017.8 |
| 20260906120522 | 62 | 326 | 0.0 | 0.0 | 0.00 | 0.00 | 0.00 | 82 | 1017.7 |
| 20260906120021 | 61 | 326 | 0.0 | 0.0 | 0.00 | 0.00 | 0.00 | 82 | 1017.6 |
| 20260906115522 | 60 | 326 | 0.0 | 0.0 | 0.00 | 0.00 | 0.00 | 82 | 1017.6 |
| 20260906115021 | 60 | 326 | 0.0 | 0.0 | 0.00 | 0.00 | 0.00 | 82 | 1017.7 |
| 20260906114528 | 60 | 326 | 0.0 | 0.0 | 0.00 | 0.00 | 0.00 | 82 | 1017.6 |
| 20260906114019 | 60 | 326 | 0.0 | 0.0 | 0.00 | 0.00 | 0.00 | 82 | 1017.5 |
| 20260906113519 | 60 | 326 | 0.0 | 0.0 | 0.00 | 0.00 | 0.00 | 82 | 1017.3 |
| 20260906113038 | 60 | 326 | 0.0 | 0.0 | 0.00 | 0.00 | 0.00 | 82 | 1017.2 |
| 20260906112518 | 60 | 326 | 0.0 | 0.0 | 0.00 | 0.00 | 0.00 | 82 | 1017.2 |
| 20260906112018 | 60 | 326 | 0.0 | 0.0 | 0.00 | 0.00 | 0.00 | 82 | 1017.2 |
| 20260906111522 | 60 | 326 | 0.0 | 0.0 | 0.00 | 0.00 | 0.00 | 82 | 1017.2 |
| 20260906111017 | 60 | 326 | 0.0 | 0.0 | 0.00 | 0.00 | 0.00 | 82 | 1017.2 |
| 20260906110517 | 59 | 326 | 0.0 | 0.0 | 0.00 | 0.00 | 0.00 | 82 | 1017.1 |
| 20260906110019 | 59 | 326 | 0.0 | 0.9 | 0.00 | 0.00 | 0.00 | 82 | 1017.0 |
| 20260906105516 | 59 | 326 | 0.0 | 0.0 | 0.00 | 0.00 | 0.00 | 82 | 1017.0 |
| 20260906105019 | 59 | 326 | 0.0 | 0.9 | 0.00 | 0.00 | 0.00 | 82 | 1016.9 |
| 20260906104525 | 59 | 326 | 0.0 | 0.9 | 0.00 | 0.00 | 0.00 | 82 | 1016.8 |
| 20260906104015 | 58 | 326 | 0.0 | 0.9 | 0.00 | 0.00 | 0.00 | 82 | 1017.0 |
| 20260906103514 | 58 | 326 | 0.0 | 0.0 | 0.00 | 0.00 | 0.00 | 82 | 1017.0 |
| 20260906103015 | 58 | 326 | 0.0 | 0.0 | 0.00 | 0.00 | 0.00 | 82 | 1016.8 |
| 20260906102513 | 58 | 326 | 0.0 | 0.0 | 0.00 | 0.00 | 0.00 | 82 | 1016.8 |
| 20260906102012 | 58 | 326 | 0.0 | 0.0 | 0.00 | 0.00 | 0.00 | 82 | 1016.7 |
| 20260906101512 | 58 | 326 | 0.0 | 0.0 | 0.00 | 0.00 | 0.00 | 82 | 1016.6 |
| 20260906101011 | 58 | 326 | 0.0 | 0.0 | 0.00 | 0.00 | 0.00 | 82 | 1016.6 |
| 20260906100511 | 58 | 326 | 0.0 | 0.0 | 0.00 | 0.00 | 0.00 | 82 | 1016.6 |
| 20260906100016 | 58 | 326 | 0.0 | 0.0 | 0.00 | 0.00 | 0.00 | 82 | 1016.5 |
| 20260906095512 | 58 | 326 | 0.0 | 0.0 | 0.00 | 0.00 | 0.00 | 81 | 1016.5 |
| 20260906095009 | 58 | 326 | 0.0 | 0.0 | 0.00 | 0.00 | 0.00 | 82 | 1016.4 |
| 20260906094509 | 58 | 326 | 0.0 | 0.0 | 0.00 | 0.00 | 0.00 | 81 | 1016.4 |
| 20260906094008 | 58 | 326 | 0.0 | 0.0 | 0.00 | 0.00 | 0.00 | 81 | 1016.4 |
| 20260906093508 | 58 | 326 | 0.0 | 0.0 | 0.00 | 0.00 | 0.00 | 81 | 1016.4 |
| 20260906093009 | 58 | 326 | 0.0 | 0.9 | 0.00 | 0.00 | 0.00 | 81 | 1016.4 |
| 20260906092507 | 59 | 326 | 0.0 | 0.9 | 0.00 | 0.00 | 0.00 | 82 | 1016.3 |
| 20260906092011 | 59 | 53 | 0.0 | 0.0 | 0.00 | 0.00 | 0.00 | 82 | 1016.4 |
| 20260906091515 | 59 | 53 | 0.0 | 0.0 | 0.00 | 0.00 | 0.00 | 81 | 1016.3 |
| 20260906091005 | 59 | 53 | 0.0 | 0.0 | 0.00 | 0.00 | 0.00 | 82 | 1016.1 |
| 20260906090504 | 59 | 53 | 0.0 | 0.0 | 0.00 | 0.00 | 0.00 | 82 | 1016.1 |
| 20260906090006 | 58 | 53 | 0.0 | 0.0 | 0.00 | 0.00 | 0.00 | 82 | 1016.0 |
| 20260906085505 | 58 | 53 | 0.0 | 0.0 | 0.00 | 0.00 | 0.00 | 81 | 1016.0 |
| 20260906085003 | 58 | 53 | 0.0 | 0.0 | 0.00 | 0.00 | 0.00 | 81 | 1015.8 |
| 20260906084502 | 58 | 53 | 0.0 | 0.0 | 0.00 | 0.00 | 0.00 | 81 | 1015.7 |
| 20260906084005 | 59 | 53 | 0.0 | 0.0 | 0.00 | 0.00 | 0.00 | 81 | 1015.6 |
| 20260906083502 | 59 | 53 | 0.0 | 0.0 | 0.00 | 0.00 | 0.00 | 81 | 1015.7 |
| 20260906083100 | 59 | 53 | 0.0 | 0.0 | 0.00 | 0.00 | 0.00 | 81 | 1015.8 |
| 20260906082559 | 59 | 53 | 0.0 | 0.0 | 0.00 | 0.00 | 0.00 | 81 | 1015.6 |
| 20260906082101 | 59 | 53 | 0.0 | 0.0 | 0.00 | 0.00 | 0.00 | 81 | 1015.7 |
| 20260906081611 | 60 | 53 | 0.0 | 0.0 | 0.00 | 0.00 | 0.00 | 81 | 1015.6 |
| 20260906081057 | 60 | 53 | 0.0 | 0.0 | 0.00 | 0.00 | 0.00 | 81 | 1015.7 |
| 20260906080557 | 60 | 53 | 0.0 | 0.0 | 0.00 | 0.00 | 0.00 | 81 | 1015.6 |
| 20260906080056 | 60 | 53 | 0.0 | 0.0 | 0.00 | 0.00 | 0.00 | 81 | 1015.6 |
| 20260906075556 | 60 | 53 | 0.0 | 0.0 | 0.00 | 0.00 | 0.00 | 81 | 1015.6 |
| 20260906075057 | 60 | 53 | 0.0 | 0.0 | 0.00 | 0.00 | 0.00 | 81 | 1015.6 |
| 20260906074611 | 60 | 53 | 0.0 | 0.0 | 0.00 | 0.00 | 0.00 | 81 | 1015.6 |
| 20260906074056 | 60 | 53 | 0.0 | 0.0 | 0.00 | 0.00 | 0.00 | 81 | 1015.5 |
| 20260906073557 | 60 | 53 | 0.0 | 0.0 | 0.00 | 0.00 | 0.00 | 81 | 1015.5 |
| 20260906073059 | 60 | 53 | 0.0 | 0.0 | 0.00 | 0.00 | 0.00 | 81 | 1015.4 |
| 20260906072555 | 60 | 53 | 0.0 | 0.0 | 0.00 | 0.00 | 0.00 | 81 | 1015.5 |
| 20260906072059 | 60 | 53 | 0.0 | 0.0 | 0.00 | 0.00 | 0.00 | 81 | 1015.5 |
| 20260906071555 | 60 | 53 | 0.0 | 0.0 | 0.00 | 0.00 | 0.00 | 81 | 1015.5 |
| 20260906071053 | 60 | 53 | 0.0 | 0.0 | 0.00 | 0.00 | 0.00 | 81 | 1015.5 |
| 20260906070553 | 60 | 53 | 0.0 | 0.0 | 0.00 | 0.00 | 0.00 | 81 | 1015.5 |
| 20260906070052 | 60 | 53 | 0.0 | 0.0 | 0.00 | 0.00 | 0.00 | 81 | 1015.6 |
| 20260906065552 | 60 | 53 | 0.0 | 0.0 | 0.00 | 0.00 | 0.00 | 81 | 1015.6 |
| 20260906065053 | 61 | 53 | 0.0 | 0.0 | 0.00 | 0.00 | 0.00 | 81 | 1015.5 |
| 20260906064552 | 61 | 53 | 0.0 | 0.0 | 0.00 | 0.00 | 0.00 | 81 | 1015.6 |
| 20260906064052 | 61 | 53 | 0.0 | 0.0 | 0.00 | 0.00 | 0.00 | 81 | 1015.5 |
| 20260906063551 | 61 | 53 | 0.0 | 0.0 | 0.00 | 0.00 | 0.00 | 81 | 1015.5 |
| 20260906063052 | 61 | 53 | 0.0 | 0.0 | 0.00 | 0.00 | 0.00 | 81 | 1015.8 |
| 20260906062551 | 61 | 53 | 0.0 | 0.0 | 0.00 | 0.00 | 0.00 | 81 | 1015.6 |
| 20260906062055 | 61 | 53 | 0.0 | 0.0 | 0.00 | 0.00 | 0.00 | 81 | 1015.7 |
| 20260906061556 | 61 | 53 | 0.0 | 0.0 | 0.00 | 0.00 | 0.00 | 81 | 1015.6 |
| 20260906061050 | 61 | 53 | 0.0 | 0.0 | 0.00 | 0.00 | 0.00 | 81 | 1015.6 |
| 20260906060651 | 61 | 53 | 0.0 | 0.0 | 0.00 | 0.00 | 0.00 | 81 | 1015.7 |
| 20260906060049 | 61 | 53 | 0.0 | 0.0 | 0.00 | 0.00 | 0.00 | 81 | 1015.6 |
| 20260906055549 | 61 | 53 | 0.0 | 0.0 | 0.00 | 0.00 | 0.00 | 81 | 1015.7 |
| 20260906055050 | 61 | 53 | 0.0 | 0.0 | 0.00 | 0.00 | 0.00 | 81 | 1015.8 |
| 20260906054549 | 61 | 53 | 0.0 | 0.0 | 0.00 | 0.00 | 0.00 | 81 | 1015.8 |
| 20260906054049 | 61 | 53 | 0.0 | 0.0 | 0.00 | 0.00 | 0.00 | 81 | 1015.7 |
| 20260906053549 | 61 | 53 | 0.0 | 0.0 | 0.00 | 0.00 | 0.00 | 81 | 1015.8 |
| 20260906053049 | 61 | 53 | 0.0 | 0.0 | 0.00 | 0.00 | 0.00 | 81 | 1015.8 |
| 20260906052549 | 61 | 53 | 0.0 | 0.0 | 0.00 | 0.00 | 0.00 | 81 | 1015.8 |
| 20260906052049 | 61 | 53 | 0.0 | 0.0 | 0.00 | 0.00 | 0.00 | 81 | 1015.8 |
| 20260906051559 | 61 | 53 | 0.0 | 0.0 | 0.00 | 0.00 | 0.00 | 81 | 1015.9 |
| 20260906051048 | 61 | 53 | 0.0 | 0.0 | 0.00 | 0.00 | 0.00 | 81 | 1015.9 |
| 20260906050551 | 61 | 53 | 0.0 | 0.0 | 0.00 | 0.00 | 0.00 | 81 | 1015.9 |
| 20260906050052 | 61 | 53 | 0.0 | 0.0 | 0.00 | 0.00 | 0.00 | 81 | 1015.8 |
| 20260906045550 | 61 | 53 | 0.0 | 1.7 | 0.00 | 0.00 | 0.00 | 81 | 1015.8 |
| 20260906045045 | 61 | 53 | 0.0 | 2.6 | 0.00 | 0.00 | 0.00 | 81 | 1015.8 |
| 20260906044545 | 61 | 41 | 0.0 | 1.7 | 0.00 | 0.00 | 0.00 | 81 | 1015.7 |
| 20260906044045 | 61 | 35 | 0.0 | 0.0 | 0.00 | 0.00 | 0.00 | 81 | 1015.5 |
| 20260906043544 | 61 | 35 | 0.0 | 0.0 | 0.00 | 0.00 | 0.00 | 81 | 1015.6 |
| 20260906043043 | 61 | 35 | 0.0 | 0.0 | 0.00 | 0.00 | 0.00 | 81 | 1015.7 |
| 20260906042546 | 61 | 36 | 0.0 | 0.0 | 0.00 | 0.00 | 0.00 | 81 | 1015.8 |
| 20260906042042 | 61 | 35 | 0.0 | 0.0 | 0.00 | 0.00 | 0.00 | 81 | 1015.7 |
| 20260906041544 | 61 | 35 | 0.0 | 0.0 | 0.00 | 0.00 | 0.00 | 81 | 1015.7 |
| 20260906041045 | 61 | 35 | 0.0 | 0.0 | 0.00 | 0.00 | 0.00 | 81 | 1015.6 |
| 20260906040541 | 61 | 35 | 0.0 | 0.0 | 0.00 | 0.00 | 0.00 | 81 | 1015.6 |
| 20260906040045 | 61 | 35 | 0.0 | 0.0 | 0.00 | 0.00 | 0.00 | 81 | 1015.6 |
| 20260906035541 | 61 | 35 | 0.0 | 0.0 | 0.00 | 0.00 | 0.00 | 81 | 1015.6 |
| 20260906035043 | 61 | 35 | 0.0 | 0.0 | 0.00 | 0.00 | 0.00 | 81 | 1015.6 |
| 20260906034539 | 60 | 35 | 0.0 | 0.0 | 0.00 | 0.00 | 0.00 | 80 | 1015.5 |
| 20260906034038 | 60 | 35 | 0.0 | 0.0 | 0.00 | 0.00 | 0.00 | 80 | 1015.5 |
| 20260906033538 | 61 | 35 | 0.0 | 0.0 | 0.00 | 0.00 | 0.00 | 80 | 1015.5 |
| 20260906033045 | 61 | 35 | 0.0 | 0.0 | 0.00 | 0.00 | 0.00 | 80 | 1015.4 |
| 20260906032539 | 61 | 35 | 0.0 | 0.0 | 0.00 | 0.00 | 0.00 | 80 | 1015.4 |
| 20260906032041 | 61 | 35 | 0.0 | 0.0 | 0.00 | 0.00 | 0.00 | 80 | 1015.5 |
| 20260906031551 | 61 | 35 | 0.0 | 0.0 | 0.00 | 0.00 | 0.00 | 80 | 1015.5 |
| 20260906031037 | 61 | 35 | 0.0 | 0.0 | 0.00 | 0.00 | 0.00 | 80 | 1015.5 |
| 20260906030537 | 61 | 35 | 0.0 | 0.0 | 0.00 | 0.00 | 0.00 | 80 | 1015.4 |
| 20260906030039 | 61 | 35 | 0.0 | 0.0 | 0.00 | 0.00 | 0.00 | 80 | 1015.3 |
| 20260906025536 | 60 | 35 | 0.0 | 0.0 | 0.00 | 0.00 | 0.00 | 80 | 1015.4 |
| 20260906025037 | 60 | 35 | 0.0 | 0.0 | 0.00 | 0.00 | 0.00 | 80 | 1015.4 |
| 20260906024537 | 60 | 35 | 0.0 | 0.0 | 0.00 | 0.00 | 0.00 | 80 | 1015.3 |
| 20260906024036 | 60 | 35 | 0.0 | 0.0 | 0.00 | 0.00 | 0.00 | 79 | 1015.3 |
| 20260906023536 | 60 | 35 | 0.0 | 0.0 | 0.00 | 0.00 | 0.00 | 79 | 1015.3 |
| 20260906023037 | 60 | 35 | 0.0 | 0.0 | 0.00 | 0.00 | 0.00 | 79 | 1015.3 |
| 20260906022535 | 60 | 35 | 0.0 | 0.0 | 0.00 | 0.00 | 0.00 | 79 | 1015.1 |
| 20260906022035 | 60 | 35 | 0.0 | 0.0 | 0.00 | 0.00 | 0.00 | 79 | 1015.2 |
| 20260906021535 | 60 | 35 | 0.0 | 0.0 | 0.00 | 0.00 | 0.00 | 79 | 1015.2 |
| 20260906021034 | 60 | 35 | 0.0 | 0.0 | 0.00 | 0.00 | 0.00 | 78 | 1015.2 |
| 20260906020534 | 60 | 35 | 0.0 | 0.0 | 0.00 | 0.00 | 0.00 | 78 | 1015.1 |
| 20260906020034 | 60 | 35 | 0.0 | 0.0 | 0.00 | 0.00 | 0.00 | 78 | 1015.1 |
| 20260906015533 | 60 | 35 | 0.0 | 0.0 | 0.00 | 0.00 | 0.00 | 76 | 1015.0 |
| 20260906015033 | 60 | 35 | 0.0 | 0.0 | 0.00 | 0.00 | 0.00 | 76 | 1015.1 |
| 20260906014535 | 61 | 35 | 0.0 | 0.0 | 0.00 | 0.00 | 0.00 | 76 | 1015.0 |
| 20260906014032 | 61 | 35 | 0.0 | 0.0 | 0.00 | 0.00 | 0.00 | 75 | 1014.8 |
| 20260906013532 | 61 | 35 | 0.0 | 0.0 | 0.00 | 0.00 | 0.00 | 74 | 1014.9 |
| 20260906013032 | 61 | 35 | 0.0 | 0.0 | 0.00 | 0.00 | 0.00 | 74 | 1014.8 |
| 20260906012535 | 61 | 35 | 0.0 | 0.0 | 0.00 | 0.00 | 0.00 | 73 | 1014.9 |
| 20260906012031 | 61 | 35 | 0.0 | 0.0 | 0.00 | 0.00 | 0.00 | 73 | 1014.8 |
| 20260906011536 | 61 | 36 | 0.0 | 0.0 | 0.00 | 0.00 | 0.00 | 73 | 1014.8 |
| 20260906011031 | 61 | 35 | 0.0 | 0.0 | 0.00 | 0.00 | 0.00 | 72 | 1014.8 |
| 20260906010531 | 61 | 35 | 0.0 | 0.0 | 0.00 | 0.00 | 0.00 | 72 | 1014.9 |
| 20260906010032 | 61 | 35 | 0.0 | 0.0 | 0.00 | 0.00 | 0.00 | 71 | 1014.9 |
| 20260906005530 | 61 | 35 | 0.0 | 0.0 | 0.00 | 0.00 | 0.00 | 71 | 1014.8 |
| 20260906005030 | 61 | 36 | 0.0 | 0.0 | 0.00 | 0.00 | 0.00 | 71 | 1014.8 |
| 20260906004530 | 61 | 35 | 0.0 | 0.0 | 0.00 | 0.00 | 0.00 | 71 | 1014.7 |
| 20260906004029 | 62 | 35 | 0.0 | 0.0 | 0.00 | 0.00 | 0.00 | 70 | 1014.8 |
| 20260906003529 | 62 | 35 | 0.0 | 0.0 | 0.00 | 0.00 | 0.00 | 70 | 1014.6 |
| 20260906003029 | 62 | 35 | 0.0 | 0.0 | 0.00 | 0.00 | 0.00 | 70 | 1014.6 |
| 20260906002529 | 62 | 35 | 0.0 | 0.0 | 0.00 | 0.00 | 0.00 | 70 | 1014.6 |
| 20260906002029 | 62 | 35 | 0.0 | 0.0 | 0.00 | 0.00 | 0.00 | 69 | 1014.8 |
| 20260906001528 | 63 | 36 | 0.0 | 0.0 | 0.00 | 0.00 | 0.00 | 69 | 1014.7 |
| 20260906001027 | 63 | 35 | 0.0 | 0.0 | 0.00 | 0.00 | 0.00 | 69 | 1014.7 |
| 20260906000529 | 63 | 35 | 0.0 | 0.0 | 0.00 | 0.00 | 0.00 | 69 | 1014.6 |
| 20260906000028 | 64 | 35 | 0.0 | 0.0 | 0.00 | 0.00 | 0.00 | 68 | 1014.6 |
| 20260905235527 | 64 | 35 | 0.0 | 0.0 | 0.00 | 0.00 | 0.00 | 68 | 1014.7 |
| 20260905235028 | 65 | 35 | 0.0 | 0.0 | 0.00 | 0.00 | 0.00 | 68 | 1014.5 |
| 20260905234528 | 65 | 35 | 0.0 | 0.0 | 0.00 | 0.00 | 0.00 | 66 | 1014.6 |
| 20260905234027 | 66 | 35 | 0.0 | 0.0 | 0.00 | 0.00 | 0.00 | 65 | 1014.7 |
| 20260905233527 | 67 | 35 | 0.0 | 0.0 | 0.00 | 0.00 | 0.00 | 64 | 1014.6 |
| 20260905233026 | 68 | 35 | 0.0 | 0.0 | 0.00 | 0.00 | 0.00 | 62 | 1014.6 |
| 20260905232526 | 70 | 35 | 0.0 | 0.0 | 0.00 | 0.00 | 0.00 | 60 | 1014.6 |
| 20260905232026 | 71 | 35 | 0.0 | 0.0 | 0.00 | 0.00 | 0.00 | 58 | 1014.5 |
| 20260905231526 | 72 | 35 | 0.0 | 0.0 | 0.00 | 0.00 | 0.00 | 58 | 1014.5 |
| 20260905231025 | 72 | 35 | 0.0 | 0.0 | 0.00 | 0.00 | 0.00 | 58 | 1014.6 |
| 20260905230525 | 73 | 35 | 0.0 | 0.0 | 0.00 | 0.00 | 0.00 | 57 | 1014.6 |
| 20260905230028 | 73 | 35 | 0.0 | 0.0 | 0.00 | 0.00 | 0.00 | 58 | 1014.5 |
| 20260905225524 | 72 | 35 | 0.0 | 0.0 | 0.00 | 0.00 | 0.00 | 58 | 1014.6 |
| 20260905225025 | 72 | 35 | 0.0 | 0.0 | 0.00 | 0.00 | 0.00 | 58 | 1014.6 |
| 20260905224533 | 72 | 35 | 0.0 | 2.6 | 0.00 | 0.00 | 0.00 | 58 | 1014.6 |
| 20260905224025 | 73 | 37 | 0.0 | 2.6 | 0.00 | 0.00 | 0.00 | 57 | 1014.6 |
| 20260905223525 | 73 | 347 | 0.0 | 0.0 | 0.00 | 0.00 | 0.00 | 57 | 1014.6 |
| 20260905223024 | 73 | 347 | 0.0 | 0.0 | 0.00 | 0.00 | 0.00 | 56 | 1014.6 |
| 20260905222523 | 73 | 347 | 0.0 | 0.0 | 0.00 | 0.00 | 0.00 | 55 | 1014.5 |
| 20260905222022 | 74 | 347 | 0.0 | 0.0 | 0.00 | 0.00 | 0.00 | 55 | 1014.5 |
| 20260905221522 | 75 | 347 | 0.0 | 0.0 | 0.00 | 0.00 | 0.00 | 53 | 1014.5 |
| 20260905221028 | 75 | 49 | 0.0 | 0.9 | 0.00 | 0.00 | 0.00 | 56 | 1014.3 |
| 20260905220522 | 75 | 49 | 0.0 | 0.9 | 0.00 | 0.00 | 0.00 | 53 | 1014.3 |
| 20260905220022 | 75 | 60 | 0.0 | 0.0 | 0.00 | 0.00 | 0.00 | 53 | 1014.2 |
| 20260905215522 | 75 | 60 | 0.0 | 0.0 | 0.00 | 0.00 | 0.00 | 52 | 1014.1 |
| 20260905215021 | 75 | 62 | 0.0 | 0.9 | 0.00 | 0.00 | 0.00 | 52 | 1014.0 |
| 20260905214521 | 76 | 60 | 0.0 | 0.9 | 0.00 | 0.00 | 0.00 | 52 | 1014.1 |
| 20260905214022 | 76 | 46 | 0.0 | 0.9 | 0.00 | 0.00 | 0.00 | 53 | 1014.0 |
| 20260905213522 | 76 | 14 | 0.0 | 0.9 | 0.00 | 0.00 | 0.00 | 52 | 1014.0 |
| 20260905213121 | 76 | 14 | 0.0 | 1.7 | 0.00 | 0.00 | 0.00 | 51 | 1014.0 |